{"data":{"norad_id":53726,"intl_designator":"2022-107AC","name":"STARLINK-4697","alt_names":[],"object_type":"PAYLOAD","status":"ACTIVE","operator":null,"country":"US","launch_date":"2022-09-05","launch_site_code":"AFETR","launch_vehicle":null,"mission":null,"orbit_class":"UNKNOWN","rcs_meters":null,"size_class":null,"mass_kg":null,"dimensions":null,"purposes":["comms"],"wikipedia_slug":null,"has_3d_model":false,"image_url":null,"decayed_at":null,"tle_current":{"epoch":"2026-09-19T21:29:14.466048Z","epoch_age_seconds":133953,"freshness":"FRESH","line1":"1 53726U 22107AC  26262.89530632  .00000916  00000+0  38263-4 0  9990","line2":"2 53726  53.1597  88.2020 0001237  83.8541 276.2603 15.34385036223929","mean_motion":15.34385036,"eccentricity":0.0001237,"inclination_deg":53.1597,"raan_deg":88.202,"arg_perigee_deg":83.8541,"mean_anomaly_deg":276.2603,"bstar":3.8263e-5,"rev_number":22392,"period_min":93.848673326087,"perigee_km":461.90149929062,"apogee_km":463.59393416954,"semimajor_km":6840.8847167301,"source":"CELESTRAK","updated_at":"2026-09-21T09:00:32.986446Z"}}}